When you browse on this site, cookies collect data to enhance your experience and personalize the content and advertising you see.
Visit our Privacy Policy to learn more. By continuing to use the site, you agree to this use of cookies and data.
  • In Sweden
  • List of Countries
  • For 7 days
  • Water Temperature
  • Satellite Maps
  • Weather Map
  • Weather Widgets
  • user-avatar
    Login

    Hourly Weather Carmarthen

    Today, 17 January, Thursday

    Time Temperature Precipitation Wind Pressure Humidity
    00:00 +1°C° 0 mm 11 mps 751 mmHg 70%
    01:00 +1°C° 0 mm 11 mps 752 mmHg 67%
    02:00 -1°C° 0 mm 11 mps 754 mmHg 64%
    03:00 -1°C° 0 mm 11 mps 755 mmHg 61%
    04:00 0°C° 0 mm 10 mps 755 mmHg 61%
    05:00 0°C° 0 mm 10 mps 756 mmHg 60%
    06:00 0°C° 0 mm 9 mps 757 mmHg 60%
    07:00 -1°C° 0 mm 8 mps 758 mmHg 61%
    08:00 -1°C° 0 mm 8 mps 758 mmHg 62%
    09:00 -1°C° 0 mm 7 mps 759 mmHg 64%
    10:00 +1°C° 0 mm 6 mps 759 mmHg 63%
    11:00 +2°C° 0 mm 6 mps 760 mmHg 62%
    12:00 +3°C° 0 mm 5 mps 760 mmHg 61%
    13:00 +3°C° 0 mm 4 mps 760 mmHg 63%
    14:00 +3°C° 0 mm 3 mps 760 mmHg 65%
    15:00 +3°C° 0 mm 3 mps 760 mmHg 67%
    16:00 +3°C° 0 mm 2 mps 760 mmHg 70%
    17:00 +4°C° 0 mm 1 mps 760 mmHg 73%
    18:00 +3°C° 0 mm 1 mps 760 mmHg 77%
    19:00 +3°C° 0 mm 1 mps 760 mmHg 77%
    20:00 +2°C° 0 mm 2 mps 760 mmHg 78%
    21:00 +1°C° 0 mm 3 mps 760 mmHg 78%
    22:00 +1°C° 0 mm 3 mps 759 mmHg 76%
    23:00 0°C° 0 mm 4 mps 759 mmHg 73%

    Tomorrow, 18 January, Friday

    Time Temperature Precipitation Wind Pressure Humidity
    00:00 +1°C° 0 mm 5 mps 759 mmHg 71%
    01:00 +1°C° 0 mm 6 mps 758 mmHg 72%
    02:00 0°C° 0 mm 7 mps 757 mmHg 73%
    03:00 +1°C° 0 mm 8 mps 757 mmHg 73%
    04:00 +1°C° 0.1 mm 8 mps 756 mmHg 75%
    05:00 +1°C° 0.1 mm 9 mps 755 mmHg 77%
    06:00 +2°C° 0.1 mm 10 mps 755 mmHg 78%
    07:00 +2°C° 0.4 mm 10 mps 754 mmHg 81%
    08:00 +2°C° 0.4 mm 11 mps 754 mmHg 84%
    09:00 +2°C° 0.4 mm 12 mps 753 mmHg 87%
    10:00 +2°C° 0.4 mm 12 mps 753 mmHg 88%
    11:00 +2°C° 0.4 mm 12 mps 753 mmHg 89%
    12:00 +3°C° 0.4 mm 12 mps 752 mmHg 90%
    13:00 +3°C° 0.8 mm 11 mps 752 mmHg 90%
    14:00 +5°C° 0.8 mm 9 mps 751 mmHg 91%
    15:00 +5°C° 0.8 mm 8 mps 751 mmHg 92%
    16:00 +4°C° 0.5 mm 7 mps 751 mmHg 92%
    17:00 +4°C° 0.5 mm 6 mps 750 mmHg 93%
    18:00 +3°C° 0.5 mm 5 mps 750 mmHg 94%
    19:00 +3°C° 0.1 mm 5 mps 750 mmHg 94%
    20:00 +3°C° 0.1 mm 5 mps 750 mmHg 94%
    21:00 +3°C° 0.1 mm 5 mps 750 mmHg 94%
    22:00 +3°C° 0.1 mm 5 mps 750 mmHg 94%
    23:00 +3°C° 0.1 mm 5 mps 750 mmHg 95%

    Day after tomorrow, 19 January, Saturday

    Time Temperature Precipitation Wind Pressure Humidity
    00:00 +5°C° 0.1 mm 5 mps 750 mmHg 95%
    01:00 +3°C° 0 mm 5 mps 749 mmHg 95%
    02:00 +3°C° 0 mm 5 mps 749 mmHg 95%
    03:00 +3°C° 0 mm 5 mps 749 mmHg 95%
    04:00 +3°C° 1 mm 5 mps 749 mmHg 96%
    05:00 +3°C° 1 mm 5 mps 749 mmHg 96%
    06:00 +3°C° 1 mm 6 mps 749 mmHg 96%
    07:00 +3°C° 1.1 mm 6 mps 749 mmHg 96%
    08:00 +4°C° 1.1 mm 6 mps 749 mmHg 95%
    09:00 +4°C° 1.1 mm 6 mps 750 mmHg 95%
    10:00 +4°C° 0 mm 6 mps 750 mmHg 94%
    11:00 +6°C° 0 mm 5 mps 750 mmHg 92%
    12:00 +6°C° 0 mm 5 mps 750 mmHg 91%
    13:00 +6°C° 0 mm 5 mps 750 mmHg 91%
    14:00 +6°C° 0 mm 5 mps 750 mmHg 91%
    15:00 +7°C° 0 mm 5 mps 750 mmHg 90%
    16:00 +6°C° 0 mm 5 mps 751 mmHg 92%
    17:00 +5°C° 0 mm 5 mps 751 mmHg 93%
    18:00 +5°C° 0 mm 5 mps 751 mmHg 94%
    19:00 +5°C° 0 mm 5 mps 752 mmHg 94%
    20:00 +4°C° 0 mm 6 mps 753 mmHg 95%
    21:00 +3°C° 0 mm 6 mps 753 mmHg 95%
    22:00 +4°C° 0.1 mm 7 mps 754 mmHg 93%
    23:00 +4°C° 0.1 mm 8 mps 755 mmHg 91%

    20 January, Sunday

    Time Temperature Precipitation Wind Pressure Humidity
    00:00 +3°C° 0.1 mm 9 mps 755 mmHg 89%
    01:00 +3°C° 0.2 mm 10 mps 756 mmHg 86%
    02:00 +2°C° 0.2 mm 10 mps 757 mmHg 84%
    03:00 +2°C° 0.2 mm 11 mps 757 mmHg 81%
    04:00 +1°C° 0 mm 11 mps 758 mmHg 80%
    05:00 +1°C° 0 mm 10 mps 759 mmHg 79%
    06:00 +1°C° 0 mm 9 mps 759 mmHg 77%
    07:00 +1°C° 0 mm 9 mps 760 mmHg 78%
    08:00 0°C° 0 mm 9 mps 761 mmHg 78%
    09:00 0°C° 0 mm 8 mps 762 mmHg 78%
    10:00 +1°C° 0 mm 8 mps 763 mmHg 76%
    11:00 +2°C° 0 mm 8 mps 763 mmHg 73%
    12:00 +2°C° 0 mm 8 mps 764 mmHg 71%
    13:00 +3°C° 0.1 mm 7 mps 764 mmHg 71%
    14:00 +3°C° 0.1 mm 7 mps 764 mmHg 71%
    15:00 +3°C° 0.1 mm 7 mps 765 mmHg 71%
    16:00 +2°C° 0 mm 7 mps 765 mmHg 73%
    17:00 +2°C° 0 mm 7 mps 766 mmHg 74%
    18:00 0°C° 0 mm 7 mps 766 mmHg 76%
    19:00 0°C° 0 mm 7 mps 767 mmHg 77%
    20:00 -1°C° 0 mm 6 mps 767 mmHg 79%
    21:00 0°C° 0 mm 5 mps 767 mmHg 81%
    22:00 -1°C° 0 mm 5 mps 767 mmHg 83%
    23:00 -1°C° 0 mm 5 mps 767 mmHg 86%

    21 January, Monday

    Time Temperature Precipitation Wind Pressure Humidity
    00:00 -1°C° 0 mm 4 mps 767 mmHg 89%
    01:00 -1°C° 0 mm 4 mps 767 mmHg 88%
    02:00 -1°C° 0 mm 4 mps 766 mmHg 87%
    03:00 -1°C° 0 mm 4 mps 766 mmHg 86%
    04:00 -1°C° 0 mm 5 mps 765 mmHg 82%
    05:00 -1°C° 0 mm 6 mps 765 mmHg 79%
    06:00 -1°C° 0 mm 6 mps 764 mmHg 75%
    07:00 0°C° 0.1 mm 7 mps 763 mmHg 76%
    08:00 0°C° 0.1 mm 8 mps 762 mmHg 78%
    09:00 0°C° 0.1 mm 8 mps 761 mmHg 79%
    10:00 +1°C° 0.3 mm 9 mps 759 mmHg 80%
    11:00 +1°C° 0.3 mm 10 mps 758 mmHg 82%
    12:00 +2°C° 0.3 mm 11 mps 756 mmHg 83%
    13:00 +2°C° 1.2 mm 11 mps 755 mmHg 85%
    14:00 +2°C° 1.2 mm 11 mps 753 mmHg 87%
    15:00 +2°C° 1.2 mm 11 mps 752 mmHg 89%
    16:00 +2°C° 0.8 mm 9 mps 751 mmHg 88%
    17:00 +1°C° 0.8 mm 8 mps 750 mmHg 88%
    18:00 +1°C° 0.8 mm 6 mps 749 mmHg 87%
    19:00 +1°C° 0 mm 6 mps 748 mmHg 86%
    20:00 -1°C° 0 mm 6 mps 748 mmHg 86%
    21:00 -2°C° 0 mm 6 mps 747 mmHg 86%
    22:00 -2°C° 0 mm 6 mps 747 mmHg 86%
    23:00 -2°C° 0 mm 6 mps 746 mmHg 86%

    22 January, Tuesday

    Time Temperature Precipitation Wind Pressure Humidity
    00:00 -2°C° 0 mm 6 mps 746 mmHg 86%
    01:00 -1°C° 0.4 mm 7 mps 746 mmHg 86%
    02:00 -1°C° 0.4 mm 8 mps 746 mmHg 85%
    03:00 -1°C° 0.4 mm 8 mps 745 mmHg 84%
    04:00 -1°C° 0.2 mm 8 mps 745 mmHg 84%
    05:00 -1°C° 0.2 mm 9 mps 745 mmHg 83%
    06:00 -1°C° 0.2 mm 9 mps 745 mmHg 83%
    07:00 -1°C° 0.1 mm 9 mps 745 mmHg 82%
    08:00 -2°C° 0.1 mm 10 mps 745 mmHg 81%
    09:00 0°C° 0.1 mm 10 mps 745 mmHg 80%
    10:00 0°C° 0 mm 10 mps 745 mmHg 79%
    11:00 +1°C° 0 mm 10 mps 744 mmHg 77%
    12:00 +1°C° 0 mm 10 mps 744 mmHg 75%
    13:00 +1°C° 0 mm 10 mps 744 mmHg 73%
    14:00 +1°C° 0 mm 11 mps 743 mmHg 72%
    15:00 +1°C° 0 mm 11 mps 742 mmHg 71%
    16:00 +1°C° 0.1 mm 10 mps 742 mmHg 71%
    17:00 0°C° 0.1 mm 10 mps 742 mmHg 72%
    18:00 0°C° 0.1 mm 10 mps 741 mmHg 72%
    19:00 0°C° 0.7 mm 10 mps 741 mmHg 77%
    20:00 0°C° 0.7 mm 10 mps 741 mmHg 81%
    21:00 0°C° 0.7 mm 10 mps 740 mmHg 86%
    22:00 -1°C° 0.6 mm 11 mps 741 mmHg 86%
    23:00 -1°C° 0.6 mm 11 mps 741 mmHg 87%
    Show more